GRZLY42 ETNW-ETNW

Flight info

Callsign GRZLY42
Flight time N/A
Altitude 2000
Route WUN DCT 523401N0091927E DCT 524743N0085851E DCT 525647N0084911E DCT 530623N0084417E DCT 532115N0083541E DCT 533255N0083536E DCT 5341440N0082950E DCT NDO DCT 533255N0083536E DCT 532115N0083541E DCT 530642N0082730E DCT 525341N0082601E DCT 524752N0083841E DCT 524055N0084837E DCT 523757N0091306E DCT 523401N0091927E DCT WUN
Aircraft A400/H-SDE2E3FGHIJ4J5M1RWXY/S

Departure

Time 2026-04-17 18:34
Airport Wunstorf Air Base (ETNW)

Arrival

Time N/A
Airport Wunstorf Air Base (ETNW)
Time Latitude Longitude Altitude Speed Heading
2026-04-17 18:31 52.45848 9.41792 188 ft 1 kts 244°
2026-04-17 18:31 52.45846 9.41777 182 ft 0 kts 253°
2026-04-17 18:32 52.45835 9.41715 181 ft 12 kts 253°
2026-04-17 18:32 52.45795 9.41581 190 ft 13 kts 240°
2026-04-17 18:32 52.45747 9.41445 197 ft 14 kts 240°
2026-04-17 18:32 52.45718 9.41365 197 ft 2 kts 239°
2026-04-17 18:33 52.45718 9.41364 197 ft 1 kts 239°
2026-04-17 18:33 52.45717 9.41362 196 ft 1 kts 239°
2026-04-17 18:33 52.45673 9.41304 204 ft 8 kts 191°
2026-04-17 18:33 52.45611 9.41398 201 ft 29 kts 112°
2026-04-17 18:34 52.45615 9.41604 203 ft 25 kts 73°
2026-04-17 18:34 52.45707 9.42519 198 ft 148 kts 84°
2026-04-17 18:34 52.45924 9.44558 546 ft 207 kts 81°
2026-04-17 18:34 52.46719 9.46519 1101 ft 227 kts 31°
2026-04-17 18:35 52.48353 9.46982 1251 ft 258 kts 354°
2026-04-17 18:35 52.49802 9.45348 1106 ft 261 kts 302°
2026-04-17 18:35 52.50553 9.42657 1294 ft 264 kts 297°
2026-04-17 18:35 52.51581 9.40278 1267 ft 251 kts 313°
2026-04-17 18:36 52.52806 9.38368 1167 ft 235 kts 318°
2026-04-17 18:36 52.53991 9.36596 1115 ft 224 kts 319°
2026-04-17 18:36 52.55153 9.34845 1127 ft 232 kts 318°
2026-04-17 18:36 52.56324 9.32986 1098 ft 235 kts 316°
2026-04-17 18:37 52.57447 9.31021 1085 ft 232 kts 312°
2026-04-17 18:37 52.58420 9.29122 1058 ft 208 kts 310°
2026-04-17 18:37 52.59379 9.27326 999 ft 207 kts 312°
2026-04-17 18:37 52.60320 9.25549 991 ft 205 kts 311°
2026-04-17 18:38 52.61218 9.23734 1009 ft 204 kts 308°
2026-04-17 18:38 52.62098 9.21831 1038 ft 212 kts 307°
2026-04-17 18:38 52.63012 9.19878 1067 ft 209 kts 312°
2026-04-17 18:38 52.64122 9.18351 1099 ft 217 kts 332°
2026-04-17 18:39 52.65526 9.17324 1114 ft 225 kts 343°
2026-04-17 18:39 52.67052 9.16605 1151 ft 221 kts 349°
2026-04-17 18:39 52.68449 9.15887 1191 ft 207 kts 338°
2026-04-17 18:39 52.69723 9.14864 1246 ft 200 kts 338°
2026-04-17 18:40 52.70944 9.13751 1358 ft 196 kts 330°
2026-04-17 18:40 52.72090 9.12595 1542 ft 196 kts 330°
2026-04-17 18:40 52.73278 9.11321 1583 ft 199 kts 326°
2026-04-17 18:40 52.74284 9.09828 1555 ft 199 kts 310°
2026-04-17 18:41 52.75063 9.07953 1529 ft 198 kts 297°
2026-04-17 18:41 52.75572 9.05871 1555 ft 192 kts 286°
2026-04-17 18:41 52.75886 9.03760 1562 ft 188 kts 280°
2026-04-17 18:41 52.76206 9.01621 1556 ft 193 kts 285°
2026-04-17 18:42 52.76585 8.99469 1591 ft 196 kts 285°
2026-04-17 18:42 52.76980 8.97323 1631 ft 204 kts 290°
2026-04-17 18:42 52.77663 8.95243 1705 ft 207 kts 311°
2026-04-17 18:42 52.78795 8.93886 1684 ft 201 kts 338°
2026-04-17 18:43 52.80116 8.93446 1689 ft 191 kts
2026-04-17 18:43 52.81388 8.94059 1703 ft 189 kts 37°
2026-04-17 18:43 52.82236 8.95682 1717 ft 189 kts 68°
2026-04-17 18:43 52.82393 8.97768 1720 ft 181 kts 101°
2026-04-17 18:44 52.82112 8.99751 1685 ft 182 kts 105°
2026-04-17 18:44 52.81797 9.01634 1681 ft 163 kts 110°
2026-04-17 18:44 52.81345 9.03357 1632 ft 166 kts 115°
2026-04-17 18:44 52.80915 9.05206 1598 ft 181 kts 110°
2026-04-17 18:45 52.80453 9.07162 1621 ft 180 kts 112°
2026-04-17 18:45 52.80001 9.09052 1640 ft 172 kts 113°
2026-04-17 18:45 52.79505 9.10785 1691 ft 166 kts 116°
2026-04-17 18:45 52.78934 9.12465 1750 ft 168 kts 123°
2026-04-17 18:46 52.78317 9.14102 1797 ft 174 kts 120°
2026-04-17 18:46 52.77704 9.15908 1735 ft 178 kts 120°
2026-04-17 18:46 52.77083 9.17520 1732 ft 161 kts 125°
2026-04-17 18:46 52.76333 9.18889 1678 ft 169 kts 141°
2026-04-17 18:47 52.75234 9.19603 1667 ft 167 kts 173°
2026-04-17 18:47 52.74140 9.19311 1639 ft 168 kts 197°
2026-04-17 18:47 52.73107 9.18115 1692 ft 198 kts 222°
2026-04-17 18:47 52.72520 9.16197 1716 ft 194 kts 261°
2026-04-17 18:48 52.72698 9.14143 1624 ft 179 kts 294°
2026-04-17 18:48 52.73284 9.12230 1675 ft 196 kts 295°
2026-04-17 18:48 52.73873 9.10003 1676 ft 224 kts 294°
2026-04-17 18:48 52.74676 9.07936 1567 ft 196 kts 317°
2026-04-17 18:49 52.75622 9.06577 1348 ft 174 kts 315°
2026-04-17 18:49 52.76238 9.05027 1302 ft 169 kts 293°
2026-04-17 18:49 52.76874 9.03121 1346 ft 208 kts 307°
2026-04-17 18:49 52.77774 9.01313 1403 ft 193 kts 311°
2026-04-17 18:50 52.78721 8.99602 1427 ft 205 kts 317°
2026-04-17 18:50 52.79742 8.97967 1428 ft 203 kts 317°
2026-04-17 18:50 52.80763 8.96418 1451 ft 194 kts 320°
2026-04-17 18:50 52.81791 8.94954 1497 ft 195 kts 320°
2026-04-17 18:51 52.82817 8.93440 1485 ft 194 kts 319°
2026-04-17 18:51 52.83829 8.91929 1513 ft 198 kts 319°
2026-04-17 18:51 52.84853 8.90437 1491 ft 196 kts 320°
2026-04-17 18:51 52.85872 8.88983 1494 ft 197 kts 320°
2026-04-17 18:52 52.86936 8.87490 1491 ft 199 kts 322°
2026-04-17 18:52 52.88024 8.86208 1486 ft 193 kts 328°
2026-04-17 18:52 52.89168 8.85011 1525 ft 191 kts 331°
2026-04-17 18:52 52.90315 8.84010 1832 ft 186 kts 335°
2026-04-17 18:53 52.91516 8.83013 2199 ft 198 kts 335°
2026-04-17 18:53 52.92783 8.81995 2478 ft 201 kts 337°
2026-04-17 18:53 52.94055 8.81226 2729 ft 198 kts 344°
2026-04-17 18:53 52.95354 8.80662 2922 ft 192 kts 349°
2026-04-17 18:54 52.96682 8.80235 2994 ft 198 kts 349°
2026-04-17 18:54 52.98117 8.79788 3033 ft 207 kts 352°
2026-04-17 18:54 52.99515 8.79452 3259 ft 185 kts 350°
2026-04-17 18:54 53.00613 8.79053 3190 ft 149 kts 344°
2026-04-17 18:55 53.01565 8.78571 2928 ft 137 kts 343°
2026-04-17 18:55 53.02488 8.78120 2684 ft 146 kts 346°
2026-04-17 18:55 53.03513 8.77635 2592 ft 159 kts 345°
2026-04-17 18:55 53.04633 8.77098 2575 ft 178 kts 349°
2026-04-17 18:56 53.05937 8.77111 2929 ft 197 kts 18°
2026-04-17 18:56 53.07196 8.78101 3218 ft 211 kts 35°
2026-04-17 18:56 53.08455 8.79545 3308 ft 226 kts 37°
2026-04-17 18:56 53.09741 8.81079 3424 ft 229 kts 38°
2026-04-17 18:57 53.11041 8.82673 3307 ft 234 kts 38°
2026-04-17 18:57 53.12343 8.84309 2985 ft 239 kts 39°
2026-04-17 18:57 53.13665 8.86003 2780 ft 239 kts 39°
2026-04-17 18:57 53.15185 8.87097 2517 ft 248 kts
2026-04-17 18:58 53.16334 8.86817 2201 ft 259 kts 338°
2026-04-17 18:58 53.18282 8.84466 2057 ft 261 kts 316°
2026-04-17 18:58 53.19154 8.83025 2087 ft 257 kts 315°
2026-04-17 18:58 53.20393 8.81004 2102 ft 242 kts 316°
2026-04-17 18:59 53.21567 8.79124 1951 ft 233 kts 317°
2026-04-17 18:59 53.22741 8.77271 1702 ft 232 kts 317°
2026-04-17 18:59 53.23901 8.75399 1686 ft 236 kts 316°
2026-04-17 18:59 53.25056 8.73475 1756 ft 239 kts 315°
2026-04-17 19:00 53.26187 8.71437 1739 ft 238 kts 310°
2026-04-17 19:00 53.27220 8.69289 1768 ft 236 kts 307°
2026-04-17 19:00 53.28219 8.67138 1793 ft 234 kts 307°
2026-04-17 19:00 53.29205 8.65004 1839 ft 230 kts 307°
2026-04-17 19:01 53.30145 8.62962 1714 ft 214 kts 307°
2026-04-17 19:01 53.31051 8.60927 1712 ft 221 kts 307°
2026-04-17 19:01 53.32014 8.58866 1706 ft 228 kts 309°
2026-04-17 19:01 53.33033 8.56816 1743 ft 235 kts 309°
2026-04-17 19:02 53.34026 8.54610 1783 ft 239 kts 302°
2026-04-17 19:02 53.34902 8.52213 1792 ft 242 kts 301°
2026-04-17 19:02 53.35762 8.49834 1705 ft 236 kts 301°
2026-04-17 19:02 53.36566 8.47459 1754 ft 232 kts 296°
2026-04-17 19:03 53.37275 8.45031 1743 ft 234 kts 295°
2026-04-17 19:03 53.38025 8.42605 1743 ft 234 kts 299°
2026-04-17 19:03 53.38879 8.40315 1756 ft 235 kts 303°
2026-04-17 19:03 53.39841 8.38088 1654 ft 236 kts 308°
2026-04-17 19:04 53.40888 8.36070 1712 ft 217 kts 314°
2026-04-17 19:04 53.41982 8.34549 1809 ft 197 kts 328°
2026-04-17 19:04 53.43137 8.33426 1807 ft 191 kts 335°
2026-04-17 19:04 53.44394 8.32633 1759 ft 194 kts 344°
2026-04-17 19:05 53.45725 8.32108 1741 ft 205 kts 348°
2026-04-17 19:05 53.47129 8.31308 1793 ft 220 kts 335°
2026-04-17 19:05 53.48318 8.29680 1957 ft 225 kts 294°
2026-04-17 19:05 53.48196 8.27246 2433 ft 213 kts 231°
2026-04-17 19:06 53.46999 8.26403 2413 ft 190 kts 172°
2026-04-17 19:06 53.45644 8.26529 2069 ft 199 kts 183°
2026-04-17 19:06 53.44215 8.26384 1941 ft 215 kts 184°
2026-04-17 19:06 53.42663 8.26395 1811 ft 228 kts 172°
2026-04-17 19:07 53.41214 8.27462 1780 ft 227 kts 134°
2026-04-17 19:07 53.40843 8.29830 1839 ft 222 kts 72°
2026-04-17 19:07 53.41833 8.31437 1891 ft 207 kts 15°
2026-04-17 19:07 53.43274 8.31547 1856 ft 201 kts
2026-04-17 19:08 53.44656 8.31781 1889 ft 203 kts
2026-04-17 19:08 53.46122 8.32073 1900 ft 211 kts
2026-04-17 19:08 53.47544 8.32360 1938 ft 199 kts 10°
2026-04-17 19:08 53.48926 8.32699 2021 ft 204 kts
2026-04-17 19:09 53.50318 8.33015 2095 ft 205 kts
2026-04-17 19:09 53.51700 8.33380 2119 ft 199 kts 10°
2026-04-17 19:09 53.53073 8.33795 2073 ft 201 kts 12°
2026-04-17 19:09 53.54445 8.34303 1999 ft 206 kts 13°
2026-04-17 19:10 53.55797 8.34798 1982 ft 198 kts 13°
2026-04-17 19:10 53.57153 8.35310 1999 ft 199 kts 13°
2026-04-17 19:10 53.58479 8.35824 1977 ft 196 kts 14°
2026-04-17 19:10 53.59796 8.36367 1898 ft 198 kts 15°
2026-04-17 19:11 53.61142 8.36926 1917 ft 198 kts 15°
2026-04-17 19:11 53.62467 8.37512 1978 ft 196 kts 15°
2026-04-17 19:11 53.63834 8.38186 2007 ft 210 kts 19°
2026-04-17 19:11 53.65182 8.38939 2021 ft 203 kts 19°
2026-04-17 19:12 53.66500 8.39679 2025 ft 196 kts 20°
2026-04-17 19:12 53.67774 8.40469 1994 ft 195 kts 24°
2026-04-17 19:12 53.68868 8.41752 2029 ft 196 kts 50°
2026-04-17 19:12 53.69447 8.43822 2079 ft 200 kts 84°
2026-04-17 19:13 53.69218 8.46072 2105 ft 191 kts 121°
2026-04-17 19:13 53.68227 8.47539 2074 ft 194 kts 156°
2026-04-17 19:13 53.66978 8.47899 2027 ft 171 kts 183°
2026-04-17 19:14 53.66729 8.47856 2020 ft 165 kts 187°
2026-04-17 19:14 53.66673 8.47843 2016 ft 164 kts 186°
2026-04-17 19:14 53.65677 8.47397 2029 ft 139 kts 199°
2026-04-17 19:14 53.64834 8.46965 1990 ft 119 kts 189°
2026-04-17 19:15 53.64058 8.46779 1487 ft 107 kts 200°
2026-04-17 19:15 53.63989 8.46749 1320 ft 108 kts 185°
2026-04-17 19:18 53.63998 8.46583 1896 ft 0 kts 185°
2026-04-17 19:19 53.63706 8.46573 1358 ft 111 kts 160°
2026-04-17 19:19 53.63514 8.46606 1804 ft 129 kts 174°